COSMOS 2251 DEB, 38068

Orbit data source: Space-Track

COSMOS 2251 DEB, 38068 is space debris in LEO originally from a launch on Wed, 16 Jun 1993 UTC launched from the Plesetsk Missile And Space Complex (PKMTR). The debris from Iridium 33, an American commercial communications satellite, has been tracked extensively since its accidental collision with the defunct Russian satellite Cosmos 2251 in 2009. This event, occurring at high speed in low Earth orbit (LEO), generated thousands of pieces of space debris, significantly increasing the risk of further collisions. The Iridium 33 debris cloud has impacted space traffic management and orbital debris mitigation strategies, making it a subject of ongoing study in space situational awareness.

Loading next visibility...
Identifier
38068, 1993-036BSA
Orbit
LEO
Country
Flag of CISCIS
Related business
Manufacturer
Unknown
Mission
Spacecraft
Bus & Motor
Unknown
Mass
Unknown
Launch date (UTC)
1993-06-16 (33 years ago)
Launch vehicle
Unknown
Launch site
Plesetsk Missile And Space Complex (PKMTR)
Object type
Payload
Rocket body
Debris
Shape & HBR
Unknown shape, 0.1 m
Radar Cross Section
Small (<0.1 m²)

Expand to show TLE details & history
Last TLE update: 20 hours ago

TLE from 20 hours ago
0 COSMOS 2251 DEB
1 38068U 93036BSA 26122.79011341  .00000657  00000-0  23337-3 0  9994
2 38068  74.0228  49.0169 0025155 108.0238 252.3659 14.36222737686716
Epoch: 2026-05-02T18:57Z
TLE epoch observation values (Epoch: 2026-05-02T18:57:45.798Z)
Latitude
-0.00003°
Longitude
-96.1269°
Altitude
779.106 km
Speed
7.462 km/s
True Right ascension
03h 16m 04s
True Declination
0° 00' 00"
Sunlit
Object was in daylight at epoch
Visualization orbit readout
Latitude
Unknown
Longitude
Unknown
Altitude
Unknown
Speed
Unknown
Apparent Right ascension
Unknown
Apparent Declination
Unknown
Sunlit
N/A
Visualization observer readout
Local Sidereal Time
22:41:35
Azimuth
Unknown
Elevation
Unknown
Doppler factor
Unknown
Orbital elements
Apogee altitude
786.608 km
Perigee altitude
750.653 km
Semi-major axis
7,146.768 km
Eccentricity
0.00252
Inclination
74.0228°
RAAN
49.0169°
Arg. of periapsis
108.0238°
True anomaly
252.09145°
Mean anomaly
252.3659°
Eccentric anomaly
252.22865°
Mean motion
3.59235 °/min
Orbital period
100.21 mins
BSTAR
0.00023337
Loading maneuver chart data...
Computing Atmospheric mass density...
Loading historical data...
Loading historical data...
Loading historical data...
Loading historical data...
Loading historical data...
Loading historical data...
Loading historical data...

Documentation

Showing up to 5 results
|